Location: São Paulo
(23.5507°S, 46.6334°W)
Time: 09:17:36
(UTC-03:00)

Tiros 1 despin weight - Pass Details

Date: 17 February 2026
Orbit: 556 x 593 km, 48.2° (Epoch: 9 March)

Event Time Altitude Azimuth Distance (km) Brightness Sun altitude
Exits shadow 03:38:39 10° 191° (SSW) 1,911 ? -30.0°
Drops below altitude 10° 03:38:52 10° 189° (S) 1,939 ? -29.9°
Sets 03:42:38 0° 157° (SSE) 2,850 ? -29.2°
